Lewistown, MT

5:53 AM MDT on April 23, 2018 (GMT -0600)
Lewistown Municipal

Weather History for KLWT - May, 2013

Change the Weather History Date:

Tuesday, May 7, 2013

  Actual Average Record
Temperature  
Mean Temperature 56 °F 47 °F  
Max Temperature 72 °F 60 °F 89 °F (1908)
Min Temperature 40 °F 35 °F 21 °F (1914)
Degree Days  
Heating Degree Days 9 18  
Month to date heating degree days 138 130  
Since 1 July heating degree days 7551 7637  
Cooling Degree Days 0 0  
Month to date cooling degree days 0 0  
Year to date cooling degree days 0 0  
Growing Degree Days 7 (Base 50)    
Moisture  
Dew Point 33 °F    
Average Humidity 44    
Maximum Humidity 65    
Minimum Humidity 22    
Precipitation  
Precipitation 0.00 in 0.08 in 2.49 in (1988)
Month to date precipitation 0.27 0.48  
Year to date precipitation 3.63 3.89  
Snow  
Snow 0.00 in - - ()
Snow Depth 0.00 in    
Sea Level Pressure  
Sea Level Pressure 29.87 in    
Wind  
Wind Speed 7 mph (NE)    
Max Wind Speed 24 mph    
Max Gust Speed 33 mph    
Visibility 10 miles    
Events      
T = Trace of Precipitation, MM = Missing Value Source: NWS Daily Summary

Daily Weather History Graph

Daily Weather History Graph

Search for Another Location

Airport or City:

Astronomy

May. 07, 2013 Rise Set
Actual Time 5:52 AM MDT 8:37 PM MDT
Civil Twilight 5:17 AM MDT 9:12 PM MDT
Nautical Twilight 4:33 AM MDT 9:56 PM MDT
Astronomical Twilight 3:41 AM MDT 10:49 PM MDT
Moon 4:37 AM MDT (5/7) 6:33 PM MDT (5/7)
Length of Visible Light 15h 54m
Length of Day
14h 44m
Waning Crescent, 5% of the Moon is Illuminated
May 7
Waning Crescent
May 9
New
May 17
First Quarter
May 24
Full
May 31
Last Quarter

Hourly Weather History & Observations

Time (MDT) Temp. Windchill Dew Point Humidity Pressure Visibility Wind Dir Wind Speed Gust Speed Precip Events Conditions
12:54 AM 46.0 °F 41.9 °F 30.0 °F 54% 29.84 in 10.0 mi ESE 8.1 mph - N/A   Clear
1:54 AM 42.1 °F - 30.0 °F 62% 29.84 in 10.0 mi Calm Calm - N/A   Clear
2:54 AM 42.1 °F 40.2 °F 30.9 °F 65% 29.83 in 10.0 mi SE 3.5 mph - N/A   Clear
4:54 AM 43.0 °F 39.5 °F 30.0 °F 60% 29.81 in 10.0 mi SSE 5.8 mph - N/A   Clear
5:54 AM 42.1 °F 39.2 °F 30.0 °F 62% 29.81 in 10.0 mi SE 4.6 mph - N/A   Clear
6:54 AM 45.0 °F 42.6 °F 33.1 °F 63% 29.81 in 10.0 mi SSE 4.6 mph - N/A   Clear
7:54 AM 52.0 °F - 35.1 °F 53% 29.81 in 10.0 mi SE 3.5 mph - N/A   Clear
8:54 AM 60.1 °F - 33.1 °F 36% 29.82 in 10.0 mi ESE 3.5 mph - N/A   Clear
9:54 AM 64.9 °F - 34.0 °F 32% 29.82 in 10.0 mi Variable 3.5 mph - N/A   Clear
10:54 AM 70.0 °F - 30.9 °F 24% 29.82 in 10.0 mi North 6.9 mph - N/A   Clear
11:54 AM 72.0 °F - 30.9 °F 22% 29.83 in 10.0 mi North 12.7 mph 18.4 mph N/A   Clear
12:54 PM 69.1 °F - 36.0 °F 30% 29.85 in 10.0 mi NW 23.0 mph 33.4 mph N/A   Clear
1:54 PM 69.1 °F - 34.0 °F 27% 29.88 in 10.0 mi NW 12.7 mph 21.9 mph N/A   Clear
2:54 PM 71.1 °F - 32.0 °F 24% 29.88 in 10.0 mi North 11.5 mph 18.4 mph N/A   Clear
3:54 PM 69.1 °F - 30.9 °F 24% 29.89 in 10.0 mi North 11.5 mph 23.0 mph N/A   Partly Cloudy
4:54 PM 71.1 °F - 33.1 °F 25% 29.88 in 10.0 mi Calm Calm - N/A   Clear
5:54 PM 71.1 °F - 34.0 °F 26% 29.88 in 10.0 mi NNW 8.1 mph - N/A   Clear
6:54 PM 70.0 °F - 33.1 °F 26% 29.88 in 10.0 mi NNW 8.1 mph - N/A   Overcast
7:54 PM 64.9 °F - 36.0 °F 34% 29.89 in 10.0 mi Calm Calm - N/A   Mostly Cloudy
8:54 PM 61.0 °F - 35.1 °F 38% 29.90 in 10.0 mi North 15.0 mph - N/A   Scattered Clouds
9:54 PM 59.0 °F - 35.1 °F 41% 29.95 in 10.0 mi NE 9.2 mph - N/A   Clear
10:54 PM 53.1 °F - 35.1 °F 50% 29.98 in 10.0 mi Calm Calm - N/A   Partly Cloudy
11:54 PM 50.0 °F - 35.1 °F 57% 30.01 in 10.0 mi Calm Calm - N/A   Partly Cloudy